Location: Cahas Mountain Overlook
(37.0833°N, 80.1000°W)
Time: 20:00:15
(UTC-04:00)

Explorer 7 - Pass Details

Date: 11 February 2026
Orbit: 430 x 541 km, 50.2° (Epoch: 13 March)

Event Time Altitude Azimuth Distance (km) Brightness Sun altitude
Rises 22:24:55 0° 315° (NW) 2,608 - -52.9°
Reaches altitude 10° 22:27:29 10° 331° (NNW) 1,743 - -53.3°
Maximum altitude 22:30:36 22° 23° (NNE) 1,194 - -53.8°
Drops below altitude 10° 22:33:47 10° 74° (ENE) 1,783 - -54.4°
Sets 22:36:26 0° 91° (E) 2,686 - -54.8°
